Regional Weather Roundup
Issued by NWS Midland/Odessa, TX

Skip options and go directly to product.
Home | Oldest Version | Previous Version | Current Version | All | Text Only | Save Text | Print | Product List | Glossary On

Skip product version selection by date and time.   
234
ASUS44 KMAF 050410
RWRMAF
MIDLAND AREA WEATHER ROUNDUP
NATIONAL WEATHER SERVICE MIDLAND TX
1100 PM CDT TUE AUG 04 2015

...IN SOUTHWEST TEXAS AND SOUTHEAST NEW MEXICO...

CITY           SKY/WX    TMP DP  RH WIND       PRES   REMARKS
ALPINE         PTCLDY    69  59  70 SW6       30.18R
ANDREWS        FAIR      82  64  54 S8        30.01R
ARTESIA        PTCLDY    82  57  42 SW9       30.00R
BIG SPRING     CLEAR     83  57  41 SE8       29.99R
CARLSBAD       CLEAR     86  53  32 S9        29.97R
DRYDEN           N/A     91  62  37 SE7       29.96R
FORT STOCKTON  CLEAR     87  57  35 S14G22    30.00R
GUAD PASS      CLEAR     79  49  34 NE14      30.19R
HOBBS          CLEAR     77  64  65 CALM      30.04R
MARFA          PTCLDY    66  63  88 N6        30.17R
MIDLAND AIRPK  CLEAR     89  58  34 S9        29.99R
MIDLAND INTL   CLEAR     89  60  37 S10       29.99R
ODESSA         MOCLDY    89  59  36 S9        30.00R
PECOS          CLEAR     86  53  32 SE7       29.95R
PRESIDIO       FAIR      86  61  42 CALM      29.99R
SEMINOLE       CLEAR     78  66  66 S5        30.02R
SNYDER         CLEAR     84  63  49 S8        29.98R
WINK           CLEAR     88  59  37 SE12      29.96R
$$
...OTHER STATIONS IN TEXAS...

CITY           SKY/WX    TMP DP  RH WIND       PRES   REMARKS
ABILENE        CLEAR     83  63  50 SE8       29.94R
AMARILLO       CLEAR     77  67  71 SE14      30.01R
AUSTIN         CLEAR     84  70  62 S13       29.94R
BROWNSVILLE    CLEAR    N/A N/A N/A SE9       29.96R
CORPUS CHRISTI PTCLDY    82  77  84 SE13      29.95R
DALLAS FTW     PTCLDY    89  65  44 SE8       29.91R
DEL RIO        CLEAR     92  64  39 E12       29.89R
EL PASO        FAIR      90  50  25 CALM      30.03R
HOUSTON INT    PTCLDY    84  73  69 S5        29.98R
LUBBOCK        CLEAR     80  67  64 SE7       30.01R
SAN ANGELO     CLEAR     88  59  37 S7        29.94R
SAN ANTONIO    PTCLDY    86  72  62 SE18      29.97R
WACO           CLEAR     89  69  51 SE16G22   29.93R
WICHITA FALLS  NOT AVBL
$$
...OTHER LOCATIONS IN NEW MEXICO...

CITY           SKY/WX    TMP DP  RH WIND       PRES   REMARKS
ALAMAGORDO     CLEAR     79  43  27 E7        30.06R
ALBUQUERQUE    PTCLDY    85  41  21 N6        30.15R
CANNON AFB     CLEAR     76  63  63 SE7       30.05R
CLOVIS         CLEAR     75  63  64 SE10      30.07R
HOLLOMAN AFB   CLEAR     84  48  28 NW5       30.04R
ROSWELL        PTCLDY    83  51  33 S6        30.00R
RUIDOSO          N/A    N/A N/A N/A MISG        N/A
SANTA FE       CLEAR     68  38  33 N8        30.22R
TRUTH OR CONSE FAIR      82  54  37 W5        30.11R
TUCUMCARI      CLEAR     75  62  64 S7        29.99R
$$

USA.gov is the U.S. government's official web portal to all federal, state and local government web resources and services.